User: anonymous   Login
Location: Norwich
(52.6280°N, 1.3030°E)
Time: 16:10:59
(UTC+01:00)
Language:

APEX - Orbit

View from above orbital plane
View from above orbital plane
View from above satellite
View from above satellite

Ground track
Ground track

The orbit data is extracted from the following two-line orbital elements,

1 23191U 94046A   16183.50348750  .00004365  00000-0  15419-3 0  9991
2 23191  69.9259 308.3351 0628469  11.2342 350.2082 14.31955626 66249
Epoch (UTC): 01 July 2016 12:05:01
Eccentricity: 0.0628469
inclination: 69.9259°
perigee height: 335 km
apogee height: 1235 km
right ascension of ascending node: 308.3351°
argument of perigee: 11.2342°
revolutions per day: 14.31955626
mean anomaly at epoch: 350.2082°
orbit number at epoch: 6624

The dashed part of the orbit path shows where the satellite is in the earth's shadow,  

DLR